STARLINK-32075, 60345

Orbit data source: Space-Track

STARLINK-32075, 60345 is a payload satellite owned by SpaceX/Seattle (US) in LEO that was launched on Fri, 02 Aug 2024 UTC via an FALCON 9 launch vehicle from the Air Force Eastern Test Range (AFETR). Payload-class satellites include a variety of spacecraft equipped with specific instruments for various scientific and technological missions. These include communications satellites like Starlink; space stations such as the ISS; scientific satellites like the Hubble; Earth observation satellites from companies like Planet Labs, Umbra, and HawkEye 360; GPS; miniature CubeSats for education and research; and military/defense satellites.

Loading next visibility...
Identifier
60345, 2024-136S
Orbit
LEO
Country
Flag of USUS
Related business
Manufacturer
SpaceX/Seattle
Mission
Operational Commercial Communications
Bus & Motor
STARLINK V2M, Unknown motor
Mass
730 kg wet, ~700 kg dry
Launch date (UTC)
2024-08-02 (1 year ago)
Launch vehicle
FALCON 9
Launch site
Air Force Eastern Test Range (AFETR)
Object type
Payload
Rocket body
Debris
Shape & HBR
Box + 2 Pan, 17.7 m
Radar Cross Section
33.884 m², Large (>1 m²)

Expand to show TLE details & history
Last TLE update: 1 day ago

TLE from 1 day ago
0 STARLINK-32075
1 60345U 24136S   25291.93550245  .00000369  00000-0  24589-4 0  9996
2 60345  53.1620  13.9362 0001014 104.9209 255.1904 15.30198793 67962
Epoch: 2025-10-18T22:27Z
TLE epoch observation values (Epoch: 2025-10-18T22:27:07.411Z)
Latitude
-0.00004°
Longitude
9.49591°
Altitude
476.296 km
Speed
7.629 km/s
True Right ascension
00h 55m 44s
True Declination
0° 00' 00"
Sunlit
Object was in full shadow at epoch
Visualization orbit readout
Latitude
Unknown
Longitude
Unknown
Altitude
Unknown
Speed
Unknown
Apparent Right ascension
Unknown
Apparent Declination
Unknown
Sunlit
N/A
Visualization observer readout
Local Sidereal Time
21:46:45
Azimuth
Unknown
Elevation
Unknown
Doppler factor
Unknown
Orbital elements
Apogee altitude
476.17 km
Perigee altitude
474.78 km
Semi-major axis
6,853.612 km
Eccentricity
0.0001
Inclination
53.162°
RAAN
13.9362°
Arg. of periapsis
104.9209°
True anomaly
255.17917°
Mean anomaly
255.1904°
Eccentric anomaly
255.18478°
Mean motion
3.82529 °/min
Orbital period
94.11 mins
BSTAR
0.000024589
Loading maneuver chart data...
Computing Atmospheric mass density...
Loading historical data...
Loading historical data...
Loading historical data...
Loading historical data...
Loading historical data...
Loading historical data...
Loading historical data...

Documentation

Showing up to 5 results
|